Weather observations for the past three days for
Mason City Municipal Airport
| Date | Time (cdt) | Wind (kph) | Vis. (km) | Weather | Sky Cond. | Temperature (ºC) | Relative Humidity | Wind Chill (°C) | Heat Index (°C) | Pressure | Precipitation (cm) | ||||||
|---|---|---|---|---|---|---|---|---|---|---|---|---|---|---|---|---|---|
| Air | Dwpt | 6 hour | altimeter (cm) | sea level (mb) | 1 hr | 3 hr | 6 hr | ||||||||||
| Max. | Min. | ||||||||||||||||
| 05 | 20:53 | NW 17 | 16.09 | Overcast | OVC085 | 8.3 | -6.1 | 36% | 6 | 75.9 | 1011.7 | ||||||
| 05 | 19:53 | NW 20 | 16.09 | Overcast | OVC080 | 9.4 | -6.1 | 33% | 7 | 75.84 | 1011.1 | ||||||
| 05 | 18:53 | NW 22 G 41 | 16.09 | Mostly Cloudy | BKN080 | 10 | -6.1 | 12.8 | 10 | 32% | 7 | 75.79 | 1010.7 | ||||
| 05 | 17:53 | NW 26 G 35 | 16.09 | Mostly Cloudy | BKN080 | 10.6 | -5 | 33% | 75.79 | 1010.6 | |||||||
| 05 | 16:53 | NW 22 G 31 | 16.09 | Overcast | OVC080 | 11.1 | -5 | 32% | 75.79 | 1010.7 | |||||||
| 05 | 15:53 | NW 28 G 44 | 16.09 | Mostly Cloudy | BKN075 | 11.1 | -5 | 32% | 75.79 | 1010.6 | |||||||
| 05 | 14:53 | NW 20 G 41 | 16.09 | Mostly Cloudy | BKN070 | 11.7 | -4.4 | 32% | 75.82 | 1010.9 | |||||||
| 05 | 13:53 | NW 26 G 33 | 16.09 | Partly Cloudy | SCT070 | 11.7 | -4.4 | 32% | 75.84 | 1011.2 | |||||||
| 05 | 12:53 | NW 13 | 16.09 | A Few Clouds | FEW060 | 10 | -4.4 | 10.6 | 2.2 | 36% | 8 | 75.87 | 1011.3 | ||||
| 05 | 11:53 | NW 15 | 16.09 | Partly Cloudy | SCT060 | 10 | -3.9 | 38% | 8 | 75.84 | 1011.2 | ||||||
| 05 | 10:53 | Vrbl 7 G 31 | 0.80 | Partly Cloudy with Haze | SCT060 | 10 | -3.9 | 38% | 9 | 75.84 | 1011.1 | ||||||
| 05 | 09:53 | Calm | 14.48 | Fair | CLR | 10.6 | -3.3 | 38% | 75.82 | 1010.7 | |||||||
| 05 | 08:53 | N 13 | 16.09 | Fair | CLR | 7.8 | -4.4 | 42% | 6 | 75.82 | 1010.5 | ||||||
| 05 | 07:53 | NW 11 | 16.09 | Fair | CLR | 5.6 | -2.8 | 55% | 3 | 75.82 | 1010.6 | ||||||
| 05 | 06:53 | W 13 | 16.09 | Fair | CLR | 2.2 | -2.8 | 7.2 | 1.1 | 70% | -1 | 75.74 | 1009.8 | ||||
| 05 | 05:53 | W 9 | 16.09 | Fair | CLR | 3.3 | -3.9 | 60% | 1 | 75.69 | 1009.0 | ||||||
| 05 | 04:53 | W 9 | 16.09 | Fair | CLR | 2.2 | -3.9 | 64% | -0 | 75.62 | 1008.0 | ||||||
| 05 | 03:53 | NW 13 | 16.09 | Fair | CLR | 2.8 | -3.9 | 62% | -0 | 75.59 | 1007.5 | ||||||
| 05 | 02:53 | W 15 | 16.09 | Fair | CLR | 3.9 | -3.3 | 60% | 1 | 75.59 | 1007.3 | ||||||
| 05 | 01:53 | NW 15 | 16.09 | Fair | CLR | 6.1 | -3.9 | 49% | 3 | 75.57 | 1006.8 | ||||||
| 05 | 00:53 | NW 15 | 16.09 | Fair | CLR | 6.7 | -3.3 | 14.4 | 6.7 | 49% | 4 | 75.54 | 1006.6 | ||||
| 04 | 23:53 | NW 17 | 16.09 | Fair | CLR | 7.8 | -3.9 | 44% | 5 | 75.57 | 1006.8 | ||||||
| 04 | 22:53 | N 22 G 41 | 16.09 | Fair | CLR | 8.9 | -3.3 | 42% | 6 | 75.57 | 1006.7 | ||||||
| 04 | 21:53 | Calm | 16.09 | Fair | CLR | 10 | -3.3 | 39% | 75.54 | 1006.3 | |||||||
| 04 | 20:53 | NW 30 G 50 | 16.09 | Fair | CLR | 11.1 | -2.8 | 38% | 75.44 | 1004.9 | |||||||
| 04 | 19:53 | NW 44 G 61 | 16.09 | Fair and Windy | CLR | 12.8 | -1.7 | 37% | 75.36 | 1004.0 | |||||||
| 04 | 18:53 | NW 33 | 16.09 | A Few Clouds and Breezy | FEW120 | 14.4 | -2.2 | 21.1 | 14.4 | 32% | 75.29 | 1003.0 | |||||
| 04 | 17:53 | NW 43 G 56 | 16.09 | A Few Clouds and Windy | FEW032 FEW100 | 15.6 | -2.2 | 30% | 75.29 | 1003.1 | |||||||
| 04 | 16:53 | NW 44 G 63 | 16.09 | Fair and Windy | CLR | 17.2 | -2.8 | 26% | 75.18 | 1001.8 | |||||||
| 04 | 15:53 | NW 39 G 59 | 16.09 | Fair and Breezy | CLR | 18.3 | -1.7 | 26% | 75.16 | 1001.4 | |||||||
| 04 | 14:53 | NW 41 G 59 | 16.09 | Fair and Breezy | CLR | 20.6 | 1.1 | 27% | 75.11 | 1000.6 | |||||||
| 04 | 13:53 | NW 39 G 59 | 16.09 | Fair and Breezy | CLR | 21.1 | 1.1 | 27% | 75.08 | 1000.2 | |||||||
| 04 | 12:53 | NW 26 G 41 | 16.09 | Fair | CLR | 20.6 | 1.7 | 22.2 | 12.8 | 29% | 75.03 | 999.5 | |||||
| 04 | 11:53 | NW 30 G 48 | 16.09 | Fair | CLR | 20.6 | 5.6 | 38% | 75.03 | 999.4 | |||||||
| 04 | 10:53 | NW 26 G 43 | 16.09 | Fair | CLR | 21.1 | 5 | 35% | 74.98 | 998.8 | |||||||
| 04 | 09:53 | SW 31 G 48 | 16.09 | Fair | CLR | 21.1 | 4.4 | 34% | 74.93 | 998.3 | |||||||
| 04 | 08:53 | SW 35 G 52 | 16.09 | Fair and Breezy | CLR | 18.9 | 3.3 | 36% | 74.96 | 998.2 | |||||||
| 04 | 07:53 | SW 28 | 16.09 | Fair | CLR | 15.6 | 2.8 | 42% | 74.96 | 998.6 | |||||||
| 04 | 06:53 | SW 26 | 16.09 | Fair | CLR | 12.8 | 1.7 | 12.8 | 10 | 47% | 74.98 | 999.0 | |||||
| 04 | 05:53 | SW 22 | 16.09 | Fair | CLR | 12.2 | 1.1 | 47% | 75.03 | 999.4 | |||||||
| 04 | 04:53 | SW 19 | 16.09 | Fair | CLR | 12.2 | 0.6 | 45% | 75.08 | 1000.0 | |||||||
| 04 | 03:53 | SW 19 | 16.09 | Fair | CLR | 11.1 | 0.6 | 49% | 75.11 | 1000.6 | |||||||
| 04 | 02:53 | SW 15 | 16.09 | Fair | CLR | 11.1 | 0.6 | 49% | 75.16 | 1001.3 | |||||||
| 04 | 01:53 | SW 15 | 16.09 | Fair | CLR | 12.2 | 0.6 | 45% | 75.23 | 1002.2 | |||||||
| 04 | 00:53 | SW 11 | 16.09 | Fair | CLR | 11.7 | 0.6 | 20 | 8.9 | 47% | 75.31 | 1003.3 | |||||
| 03 | 23:53 | SW 13 | 16.09 | Fair | CLR | 11.1 | -0.6 | 45% | 75.36 | 1004.0 | |||||||
| 03 | 22:53 | S 7 | 16.09 | Fair | CLR | 10 | 0.6 | 52% | 9 | 75.41 | 1004.9 | ||||||
| 03 | 21:53 | S 9 | 16.09 | Fair | CLR | 11.1 | 0 | 47% | 75.44 | 1005.4 | |||||||
| 03 | 20:53 | W 7 | 16.09 | Fair | CLR | 16.1 | -1.1 | 31% | 75.46 | 1005.4 | |||||||
| 03 | 19:53 | NW 13 | 16.09 | Fair | CLR | 16.7 | 0 | 32% | 75.46 | 1005.5 | |||||||
| 03 | 18:53 | NW 22 | 16.09 | Fair | CLR | 20 | -0.6 | 22.2 | 20 | 25% | 75.46 | 1005.6 | |||||
| 03 | 17:53 | W 30 G 44 | 16.09 | Fair | CLR | 21.1 | 0 | 25% | 75.49 | 1005.7 | |||||||
| 03 | 16:53 | NW 26 G 41 | 16.09 | Fair | CLR | 21.7 | 0.6 | 25% | 75.49 | 1005.6 | |||||||
| 03 | 15:53 | NW 33 G 44 | 16.09 | Fair and Breezy | CLR | 22.2 | 0 | 23% | 75.51 | 1005.8 | |||||||
| 03 | 14:53 | NW 37 G 50 | 16.09 | Fair and Breezy | CLR | 22.2 | 1.1 | 25% | 75.54 | 1006.2 | |||||||
| 03 | 13:53 | N 24 G 52 | 16.09 | Fair | CLR | 21.7 | 1.1 | 26% | 75.54 | 1006.4 | |||||||
| 03 | 12:53 | N 35 G 50 | 16.09 | Fair and Breezy | CLR | 20.6 | 2.2 | 20.6 | 8.3 | 30% | 75.57 | 1006.6 | |||||
| 03 | 11:53 | NW 41 G 59 | 16.09 | Fair and Breezy | CLR | 19.4 | 3.3 | 35% | 75.59 | 1007.0 | |||||||
| 03 | 10:53 | NW 30 G 52 | 16.09 | Fair | CLR | 17.2 | 3.3 | 40% | 75.54 | 1006.6 | |||||||
| 03 | 09:53 | NW 31 G 43 | 16.09 | Fair | CLR | 15.6 | 2.8 | 42% | 75.51 | 1006.3 | |||||||
| 03 | 08:53 | W 24 G 41 | 16.09 | Fair | CLR | 13.9 | 2.2 | 45% | 75.51 | 1006.1 | |||||||
| 03 | 07:53 | SW 26 G 35 | 16.09 | Fair | CLR | 11.7 | 1.1 | 48% | 75.51 | 1006.2 | |||||||
| 03 | 06:53 | S 13 | 16.09 | Fair | CLR | 8.3 | 1.1 | 13.9 | 7.8 | 61% | 6 | 75.51 | 1006.3 | ||||
| 03 | 05:53 | S 19 | 16.09 | Fair | CLR | 9.4 | 0 | 52% | 7 | 75.54 | 1006.7 | ||||||
| 03 | 04:53 | SE 17 | 16.09 | Overcast | OVC100 | 11.1 | -0.6 | 45% | 75.62 | 1007.7 | |||||||
| 03 | 03:53 | SE 19 | 16.09 | Overcast | FEW055 FEW070 OVC095 | 11.7 | -1.1 | 41% | 75.69 | 1008.7 | |||||||
| 03 | 02:53 | SE 24 G 41 | 16.09 | Overcast | FEW080 OVC095 | 12.2 | -1.1 | 40% | 75.69 | 1008.6 | |||||||
| 03 | 01:53 | S 20 | 16.09 | Overcast | OVC090 | 12.2 | -1.1 | 40% | 75.84 | 1010.6 | |||||||
| 03 | 00:53 | S 26 G 41 | 16.09 | Overcast | OVC095 | 13.9 | -2.2 | 16.7 | 11.7 | 33% | 75.82 | 1010.4 | |||||
| 02 | 23:53 | SW 26 G 41 | 16.09 | Overcast | OVC100 | 13.3 | -2.2 | 34% | 75.84 | 1010.9 | |||||||
| 02 | 22:53 | SW 20 | 16.09 | Mostly Cloudy | BKN110 | 12.8 | -1.7 | 37% | 75.9 | 1011.6 | |||||||
| 02 | 21:53 | S 15 | 16.09 | Partly Cloudy | SCT110 | 12.2 | -1.1 | 40% | 75.97 | 1012.4 | |||||||
| Date | Time (cdt) | Wind (kph) | Vis. (km) | Weather | Sky Cond. | Air | Dwpt | Max. | Min. | Relative Humidity | Wind Chill (°C) | Heat Index (°C) | altimeter (cm) | sea level (mb) | 1 hr | 3 hr | 6 hr |
| 6 hour | |||||||||||||||||
| Temperature (ºC) | Pressure | Precipitation (cm) | |||||||||||||||